User: anonymous   Login
Location: Ferma
(41.9500°N, 44.5167°E)
Time: 21:38:16
(UTC+00:00)
Language:

Cosmos 2322 Rocket - Orbit

View from above orbital plane
View from above orbital plane
View from above satellite
View from above satellite

Ground track
Ground track

The orbit data is extracted from the following two-line orbital elements,

1 23705U 95058B   22028.45505970 -.00000287  00000-0 -12325-3 0  9998
2 23705  71.0225  91.0373 0014934 251.5737 108.3762 14.15163338355443
Epoch (UTC): 28 January 2022 10:55:17
Eccentricity: 0.0014934
inclination: 71.0225°
perigee height: 831 km
apogee height: 852 km
right ascension of ascending node: 91.0373°
argument of perigee: 251.5737°
revolutions per day: 14.15163338
mean anomaly at epoch: 108.3762°
orbit number at epoch: 35544

The dashed part of the orbit path shows where the satellite is in the earth's shadow,  

DLR